This is the latest recevied weather packets stored in our database for station/object DM4RS-1. If no packets are shown the sender has not sent any weather packets the latest 10 day(s).
| Time | Temp. | Humidity | Pressure | Rain* | Wind** | Luminosity | Snow |
|---|---|---|---|---|---|---|---|
| 1777270512 | 7.22° C | 68% | 1027.2 hPa | - | - | - | - |
| 1777269913 | 6.11° C | 70% | 1025.9 hPa | - | - | - | - |
| 1777269313 | 4.44° C | 71% | 1026.9 hPa | - | - | - | - |
| 1777268713 | 3.89° C | 70% | 1027.1 hPa | - | - | - | - |
| 1777268113 | 2.78° C | 68% | 1027.5 hPa | - | - | - | - |
| 1777267512 | 2.22° C | 68% | 1027.4 hPa | - | - | - | - |
| 1777266912 | 1.67° C | 66% | 1026.7 hPa | - | - | - | - |
| 1777266312 | 1.11° C | 64% | 1027.1 hPa | - | - | - | - |
| 1777265712 | 1.11° C | 64% | 1026.2 hPa | - | - | - | - |
| 1777265112 | 0.56° C | 65% | 1027.1 hPa | - | - | - | - |
| 1777264512 | 0.56° C | 66% | 1026.8 hPa | - | - | - | - |
| 1777263912 | 0.56° C | 67% | 1026.2 hPa | - | - | - | - |
| 1777263312 | 0.56° C | 69% | 1026.2 hPa | - | - | - | - |
| 1777262712 | 0.56° C | 70% | 1025.5 hPa | - | - | - | - |
| 1777262112 | 0.56° C | 69% | 1025.3 hPa | - | - | - | - |
| 1777261512 | 0.56° C | 69% | 1026.1 hPa | - | - | - | - |
| 1777260911 | 0.56° C | 70% | 1026.4 hPa | - | - | - | - |
| 1777260311 | 0.56° C | 69% | 1025.6 hPa | - | - | - | - |
| 1777259711 | 0.56° C | 69% | 1026.1 hPa | - | - | - | - |
| 1777259111 | 0.56° C | 72% | 1026.6 hPa | - | - | - | - |
| 1777258510 | 1.11° C | 70% | 1025.3 hPa | - | - | - | - |
| 1777257910 | 1.11° C | 71% | 1027 hPa | - | - | - | - |
| 1777257310 | 1.11° C | 71% | 1026.8 hPa | - | - | - | - |
| 1777256710 | 1.11° C | 70% | 1026.3 hPa | - | - | - | - |
| 1777256110 | 1.11° C | 70% | 1026.3 hPa | - | - | - | - |
* Rain since midnight (hover to see other rain measurements)
** Current wind speed in m/s (hover to see current wind gust speed)